Regional Weather Roundup
Issued by NWS

Home | Current Version | Previous Version | Text Only | Print | Product List | Glossary On
Versions: 1 2 3 4 5 6 7 8 9 10 11 12 13 14 15 16 17 18 19 20 21 22 23 24 25 26 27 28 29 30 31 32 33 34 35 36 37 38 39 40 41 42 43 44 45 46 47 48 49
000
ASUS45 KBOI 020110
RWRID

IDAHO REGIONAL WEATHER ROUNDUP
NATIONAL WEATHER SERVICE BOISE ID
700 PM MDT WED JUL 01 2015

NOTE: "FAIR" INDICATES FEW OR NO CLOUDS BELOW 12000 FEET
WITH NO SIGNIFICANT WEATHER AND/OR OBSTRUCTIONS TO VISIBILITY

IDZ012-014-020200-
SOUTHWEST IDAHO


CITY           SKY/WX    TMP DP  RH WIND       PRES   REMARKS
BOISE          MOSUNNY  101  41  12 NW12      29.90F HX  96
CALDWELL       MOSUNNY  100  48  17 NW7       29.88F HX  97
MOUNTAIN HOME  SUNNY    101  42  13 NW18G26   29.90F HX  97
$$

IDZ016-017-020200-
SOUTHCENTRAL IDAHO


CITY           SKY/WX    TMP DP  RH WIND       PRES   REMARKS
BURLEY         MOSUNNY   86  54  33 SW12      29.97F
JEROME         MOSUNNY   96  42  15 W13       29.97F HX  92
TWIN FALLS     PTSUNNY   96  43  16 W9        29.97F HX  92
$$

IDZ019>023-020200-
SOUTHEAST IDAHO


CITY           SKY/WX    TMP DP  RH WIND       PRES   REMARKS
IDAHO FALLS    SUNNY     91  49  23 S8        30.02F
POCATELLO      SUNNY     94  46  19 SW12      30.00F HX  90
REXBURG        SUNNY     90  50  25 SW12      30.03F
$$

IDZ006-010-011-018-031-032-020200-
CENTRAL IDAHO MOUNTAINS


CITY           SKY/WX    TMP DP  RH WIND       PRES   REMARKS
MCCALL         SUNNY     89  37  16 W9        30.09F
HAILEY         MOSUNNY   90  45  20 SW9G21    30.06F
STANLEY          N/A     85  31  14 W8        30.20F
SALMON         SUNNY     93  41  16 N10G23    29.93S
CHALLIS        SUNNY     93  31  11 NW17      30.02F
$$

IDZ002-004-006-007-026-020200-
NORTHERN IDAHO


CITY           SKY/WX    TMP DP  RH WIND       PRES   REMARKS
LEWISTON       SUNNY    100  45  15 NW8       29.87F HX  96
LOWELL           N/A     88  50  27 CALM      29.88F
COEUR D`ALENE  SUNNY     91  46  21 NW5       29.93F
MULLAN PASS    SUNNY     76  43  30 CALM      30.22F
$$


USA.gov is the U.S. government's official web portal to all federal, state and local government web resources and services.